Time,TemperatureF,DewpointF,PressureIn,WindDirection,WindDirectionDegrees,WindSpeedMPH,WindSpeedGustMPH,Humidity,HourlyPrecipIn,Conditions,Clouds,dailyrainin,SoftwareType,DateUTC
2013-02-12 00:01:00,39.0,29.0,30.03,West,281,0.0,7.0,67,0.00,,,0.00,,2013-02-12 07:01:00,
2013-02-12 00:11:00,39.0,29.0,30.03,West,281,0.0,7.0,67,0.00,,,0.00,,2013-02-12 07:11:00,
2013-02-12 00:21:00,38.0,30.0,30.04,West,276,0.0,5.0,73,0.00,,,0.00,,2013-02-12 07:21:00,
2013-02-12 00:31:00,38.0,31.0,30.03,WNW,297,0.0,4.0,75,0.00,,,0.00,,2013-02-12 07:31:00,
2013-02-12 00:41:00,38.0,31.0,30.03,WNW,297,0.0,4.0,75,0.00,,,0.00,,2013-02-12 07:41:00,
2013-02-12 00:51:00,37.0,29.0,30.03,WNW,297,0.0,2.0,74,0.00,,,0.00,,2013-02-12 07:51:00,
2013-02-12 01:01:00,37.0,30.0,30.02,WNW,297,0.0,2.0,76,0.00,,,0.00,,2013-02-12 08:01:00,
2013-02-12 01:11:00,37.0,30.0,30.02,WNW,297,0.0,2.0,76,0.00,,,0.00,,2013-02-12 08:11:00,
2013-02-12 01:21:00,37.0,30.0,30.03,WNW,297,0.0,3.0,76,0.00,,,0.00,,2013-02-12 08:21:00,
2013-02-12 01:32:00,37.0,31.0,30.02,West,262,1.0,5.0,78,0.00,,,0.00,,2013-02-12 08:32:00,
2013-02-12 01:41:00,37.0,31.0,30.02,West,262,1.0,5.0,78,0.00,,,0.00,,2013-02-12 08:41:00,
2013-02-12 01:52:00,37.0,31.0,30.02,West,262,1.0,5.0,78,0.00,,,0.00,,2013-02-12 08:52:00,
2013-02-12 02:01:00,36.0,30.0,30.04,SW,220,0.0,4.0,80,0.00,,,0.00,,2013-02-12 09:01:00,
2013-02-12 02:11:00,36.0,30.0,30.04,SW,220,0.0,4.0,80,0.00,,,0.00,,2013-02-12 09:11:00,
2013-02-12 02:21:00,37.0,31.0,30.03,South,184,0.0,4.0,79,0.00,,,0.00,,2013-02-12 09:21:00,
2013-02-12 02:32:00,37.0,31.0,30.03,SW,228,3.0,8.0,78,0.00,,,0.00,,2013-02-12 09:32:00,
2013-02-12 02:41:00,37.0,31.0,30.03,SW,228,3.0,8.0,78,0.00,,,0.00,,2013-02-12 09:41:00,
2013-02-12 02:51:00,37.0,31.0,30.03,NE,44,0.0,6.0,78,0.00,,,0.00,,2013-02-12 09:51:00,
2013-02-12 03:01:00,37.0,30.0,30.05,East,98,1.0,9.0,77,0.00,,,0.00,,2013-02-12 10:01:00,
2013-02-12 03:11:00,36.0,29.0,30.05,North,360,3.0,6.0,76,0.00,,,0.00,,2013-02-12 10:11:00,
2013-02-12 03:21:00,36.0,29.0,30.05,North,360,3.0,6.0,76,0.00,,,0.00,,2013-02-12 10:21:00,
2013-02-12 03:31:00,36.0,29.0,30.04,SW,236,4.0,12.0,75,0.00,,,0.00,,2013-02-12 10:31:00,
2013-02-12 03:43:00,36.0,29.0,30.04,SW,236,4.0,12.0,75,0.00,,,0.00,,2013-02-12 10:43:00,
2013-02-12 03:51:00,35.0,28.0,30.04,WSW,257,4.0,11.0,75,0.00,,,0.00,,2013-02-12 10:51:00,
2013-02-12 04:01:00,36.0,28.0,30.04,WSW,238,4.0,10.0,73,0.00,,,0.00,,2013-02-12 11:01:00,
2013-02-12 04:11:00,36.0,28.0,30.04,WSW,238,4.0,10.0,73,0.00,,,0.00,,2013-02-12 11:11:00,
2013-02-12 04:21:00,36.0,28.0,30.03,NW,306,5.0,13.0,71,0.00,,,0.00,,2013-02-12 11:21:00,
2013-02-12 04:32:00,36.0,27.0,30.04,West,278,2.0,8.0,70,0.00,,,0.00,,2013-02-12 11:32:00,
2013-02-12 04:41:00,36.0,27.0,30.04,West,278,2.0,8.0,70,0.00,,,0.00,,2013-02-12 11:41:00,
2013-02-12 04:52:00,36.0,27.0,30.05,WNW,295,0.0,7.0,70,0.00,,,0.00,,2013-02-12 11:52:00,
2013-02-12 05:01:00,36.0,27.0,30.05,WNW,295,0.0,7.0,70,0.00,,,0.00,,2013-02-12 12:01:00,
2013-02-12 05:11:00,36.0,27.0,30.05,WNW,295,0.0,7.0,70,0.00,,,0.00,,2013-02-12 12:11:00,
2013-02-12 05:21:00,35.0,26.0,30.07,WNW,294,0.0,0.0,70,0.00,,,0.00,,2013-02-12 12:21:00,
2013-02-12 05:32:00,34.0,26.0,30.07,WNW,296,0.0,2.0,72,0.00,,,0.00,,2013-02-12 12:32:00,
2013-02-12 05:42:00,34.0,26.0,30.07,WNW,296,0.0,2.0,72,0.00,,,0.00,,2013-02-12 12:42:00,
2013-02-12 05:52:00,35.0,28.0,30.08,NW,323,0.0,5.0,74,0.00,,,0.00,,2013-02-12 12:52:00,
2013-02-12 06:01:00,36.0,29.0,30.09,NW,326,0.0,3.0,76,0.00,,,0.00,,2013-02-12 13:01:00,
2013-02-12 06:11:00,35.0,29.0,30.09,NW,326,0.0,3.0,77,0.00,,,0.00,,2013-02-12 13:11:00,
2013-02-12 06:22:00,35.0,29.0,30.09,NW,326,0.0,3.0,77,0.00,,,0.00,,2013-02-12 13:22:00,
2013-02-12 06:32:00,35.0,29.0,30.09,NNW,328,0.0,4.0,77,0.00,,,0.00,,2013-02-12 13:32:00,
2013-02-12 06:42:00,35.0,29.0,30.09,NNW,328,0.0,4.0,77,0.00,,,0.00,,2013-02-12 13:42:00,
2013-02-12 06:51:00,35.0,29.0,30.09,NNW,328,0.0,4.0,77,0.00,,,0.00,,2013-02-12 13:51:00,
2013-02-12 07:01:00,35.0,29.0,30.10,North,359,1.0,8.0,77,0.00,,,0.00,,2013-02-12 14:01:00,
2013-02-12 07:12:00,35.0,29.0,30.10,North,359,1.0,8.0,77,0.00,,,0.00,,2013-02-12 14:12:00,
2013-02-12 07:21:00,34.0,28.0,30.11,North,359,0.0,4.0,77,0.00,,,0.00,,2013-02-12 14:21:00,
2013-02-12 07:32:00,34.0,28.0,30.12,NNW,348,0.0,6.0,78,0.00,,,0.00,,2013-02-12 14:32:00,
2013-02-12 07:42:00,34.0,28.0,30.12,NNW,348,0.0,6.0,78,0.00,,,0.00,,2013-02-12 14:42:00,
2013-02-12 07:52:00,34.0,28.0,30.14,NNW,347,0.0,5.0,78,0.00,,,0.00,,2013-02-12 14:52:00,
2013-02-12 08:02:00,33.0,27.0,30.15,NNW,347,0.0,0.0,78,0.00,,,0.00,,2013-02-12 15:02:00,
2013-02-12 08:11:00,33.0,27.0,30.15,NNW,347,0.0,0.0,78,0.00,,,0.00,,2013-02-12 15:11:00,
2013-02-12 08:21:00,33.0,27.0,30.15,NNW,347,0.0,0.0,78,0.00,,,0.00,,2013-02-12 15:21:00,
2013-02-12 08:32:00,35.0,29.0,30.15,NNW,347,0.0,0.0,77,0.00,,,0.00,,2013-02-12 15:32:00,
2013-02-12 08:42:00,35.0,29.0,30.15,NNW,347,0.0,0.0,77,0.00,,,0.00,,2013-02-12 15:42:00,
2013-02-12 08:52:00,37.0,29.0,30.16,North,349,2.0,4.0,73,0.00,,,0.00,,2013-02-12 15:52:00,
2013-02-12 09:01:00,38.0,29.0,30.16,North,360,1.0,6.0,69,0.00,,,0.00,,2013-02-12 16:01:00,
2013-02-12 09:11:00,38.0,29.0,30.16,North,360,1.0,6.0,69,0.00,,,0.00,,2013-02-12 16:11:00,
2013-02-12 09:22:00,39.0,28.0,30.17,NNE,16,1.0,5.0,64,0.00,,,0.00,,2013-02-12 16:22:00,
2013-02-12 09:32:00,40.0,27.0,30.17,NNE,25,2.0,6.0,59,0.00,,,0.00,,2013-02-12 16:32:00,
2013-02-12 09:41:00,40.0,27.0,30.17,NNE,25,2.0,6.0,59,0.00,,,0.00,,2013-02-12 16:41:00,
2013-02-12 09:51:00,40.0,26.0,30.18,NNW,346,1.0,8.0,57,0.00,,,0.00,,2013-02-12 16:51:00,
2013-02-12 10:01:00,41.0,26.0,30.18,North,353,0.0,7.0,55,0.00,,,0.00,,2013-02-12 17:01:00,
2013-02-12 10:12:00,41.0,26.0,30.18,North,353,0.0,7.0,55,0.00,,,0.00,,2013-02-12 17:12:00,
2013-02-12 10:21:00,43.0,25.0,30.18,North,360,0.0,7.0,49,0.00,,,0.00,,2013-02-12 17:21:00,
2013-02-12 10:32:00,43.0,24.0,30.18,NNE,20,3.0,9.0,46,0.00,,,0.00,,2013-02-12 17:32:00,
2013-02-12 10:42:00,43.0,24.0,30.18,NNE,20,3.0,9.0,46,0.00,,,0.00,,2013-02-12 17:42:00,
2013-02-12 10:52:00,43.0,23.0,30.19,North,11,3.0,7.0,45,0.00,,,0.00,,2013-02-12 17:52:00,
2013-02-12 11:01:00,44.0,23.0,30.18,NW,312,0.0,8.0,43,0.00,,,0.00,,2013-02-12 18:01:00,
2013-02-12 11:11:00,44.0,22.0,30.18,North,11,2.0,8.0,41,0.00,,,0.00,,2013-02-12 18:11:00,
2013-02-12 11:23:00,44.0,22.0,30.18,North,11,2.0,8.0,41,0.00,,,0.00,,2013-02-12 18:23:00,
2013-02-12 11:31:00,45.0,20.0,30.18,North,1,4.0,11.0,37,0.00,,,0.00,,2013-02-12 18:31:00,
2013-02-12 11:41:00,45.0,20.0,30.18,North,1,4.0,11.0,37,0.00,,,0.00,,2013-02-12 18:41:00,
2013-02-12 11:51:00,45.0,17.0,30.17,North,4,3.0,13.0,32,0.00,,,0.00,,2013-02-12 18:51:00,
2013-02-12 12:02:00,46.0,19.0,30.16,NW,321,3.0,10.0,33,0.00,,,0.00,,2013-02-12 19:02:00,
2013-02-12 12:11:00,46.0,19.0,30.16,NW,321,3.0,10.0,33,0.00,,,0.00,,2013-02-12 19:11:00,
2013-02-12 12:21:00,47.0,17.0,30.16,NW,321,1.0,13.0,30,0.00,,,0.00,,2013-02-12 19:21:00,
2013-02-12 12:31:00,47.0,16.0,30.15,North,360,5.0,15.0,28,0.00,,,0.00,,2013-02-12 19:31:00,
2013-02-12 12:41:00,47.0,16.0,30.15,North,360,5.0,15.0,28,0.00,,,0.00,,2013-02-12 19:41:00,
2013-02-12 12:52:00,47.0,16.0,30.15,North,360,5.0,15.0,28,0.00,,,0.00,,2013-02-12 19:52:00,
2013-02-12 13:01:00,48.0,16.0,30.14,North,357,6.0,15.0,28,0.00,,,0.00,,2013-02-12 20:01:00,
2013-02-12 13:11:00,48.0,16.0,30.14,North,357,6.0,15.0,28,0.00,,,0.00,,2013-02-12 20:11:00,
2013-02-12 13:21:00,48.0,16.0,30.13,North,4,4.0,14.0,28,0.00,,,0.00,,2013-02-12 20:21:00,
2013-02-12 13:31:00,48.0,16.0,30.12,NW,316,3.0,13.0,28,0.00,,,0.00,,2013-02-12 20:31:00,
2013-02-12 13:41:00,48.0,16.0,30.12,NW,316,3.0,13.0,28,0.00,,,0.00,,2013-02-12 20:41:00,
2013-02-12 13:52:00,48.0,16.0,30.11,NE,43,3.0,11.0,27,0.00,,,0.00,,2013-02-12 20:52:00,
2013-02-12 14:01:00,49.0,16.0,30.11,NNW,339,3.0,10.0,26,0.00,,,0.00,,2013-02-12 21:01:00,
2013-02-12 14:11:00,49.0,16.0,30.11,NNW,339,3.0,10.0,26,0.00,,,0.00,,2013-02-12 21:11:00,
2013-02-12 14:21:00,49.0,16.0,30.11,NNW,339,3.0,10.0,26,0.00,,,0.00,,2013-02-12 21:21:00,
2013-02-12 14:31:00,49.0,15.0,30.10,NNW,335,2.0,10.0,25,0.00,,,0.00,,2013-02-12 21:31:00,
2013-02-12 14:42:00,50.0,14.0,30.10,North,360,2.0,8.0,23,0.00,,,0.00,,2013-02-12 21:42:00,
2013-02-12 14:52:00,50.0,14.0,30.10,North,360,2.0,8.0,23,0.00,,,0.00,,2013-02-12 21:52:00,
2013-02-12 15:01:00,50.0,15.0,30.10,NE,41,1.0,11.0,24,0.00,,,0.00,,2013-02-12 22:01:00,
2013-02-12 15:12:00,50.0,15.0,30.10,NE,41,1.0,11.0,24,0.00,,,0.00,,2013-02-12 22:12:00,
2013-02-12 15:21:00,50.0,14.0,30.10,NNW,328,4.0,10.0,23,0.00,,,0.00,,2013-02-12 22:21:00,
2013-02-12 15:32:00,50.0,14.0,30.10,NNE,20,0.0,8.0,23,0.00,,,0.00,,2013-02-12 22:32:00,
2013-02-12 15:41:00,50.0,14.0,30.10,NNE,20,0.0,8.0,23,0.00,,,0.00,,2013-02-12 22:41:00,
2013-02-12 15:52:00,51.0,12.0,30.10,NNW,338,1.0,6.0,21,0.00,,,0.00,,2013-02-12 22:52:00,
2013-02-12 16:01:00,51.0,12.0,30.10,NW,323,2.0,9.0,21,0.00,,,0.00,,2013-02-12 23:01:00,
2013-02-12 16:11:00,50.0,13.0,30.11,North,357,0.0,8.0,22,0.00,,,0.00,,2013-02-12 23:11:00,
2013-02-12 16:21:00,50.0,13.0,30.11,North,357,0.0,8.0,22,0.00,,,0.00,,2013-02-12 23:21:00,
2013-02-12 16:31:00,50.0,12.0,30.11,North,357,2.0,8.0,21,0.00,,,0.00,,2013-02-12 23:31:00,
2013-02-12 16:42:00,50.0,12.0,30.11,North,357,2.0,8.0,21,0.00,,,0.00,,2013-02-12 23:42:00,
2013-02-12 16:52:00,50.0,12.0,30.11,NW,308,0.0,8.0,21,0.00,,,0.00,,2013-02-12 23:52:00,
2013-02-12 17:02:00,51.0,12.0,30.11,North,1,2.0,7.0,21,0.00,,,0.00,,2013-02-13 00:02:00,
2013-02-12 17:11:00,51.0,12.0,30.11,North,1,2.0,7.0,21,0.00,,,0.00,,2013-02-13 00:11:00,
2013-02-12 17:21:00,50.0,12.0,30.11,North,354,0.0,5.0,21,0.00,,,0.00,,2013-02-13 00:21:00,
2013-02-12 17:32:00,50.0,12.0,30.11,North,354,0.0,5.0,21,0.00,,,0.00,,2013-02-13 00:32:00,
2013-02-12 17:42:00,50.0,12.0,30.11,North,354,0.0,5.0,21,0.00,,,0.00,,2013-02-13 00:42:00,
2013-02-12 17:52:00,49.0,11.0,30.12,North,359,0.0,4.0,21,0.00,,,0.00,,2013-02-13 00:52:00,
2013-02-12 18:01:00,48.0,11.0,30.12,North,360,0.0,4.0,22,0.00,,,0.00,,2013-02-13 01:01:00,
2013-02-12 18:11:00,48.0,11.0,30.12,North,360,0.0,4.0,22,0.00,,,0.00,,2013-02-13 01:11:00,
2013-02-12 18:21:00,47.0,11.0,30.13,North,360,0.0,0.0,23,0.00,,,0.00,,2013-02-13 01:21:00,
2013-02-12 18:31:00,47.0,11.0,30.13,North,360,0.0,0.0,23,0.00,,,0.00,,2013-02-13 01:31:00,
2013-02-12 18:42:00,47.0,11.0,30.13,North,360,0.0,0.0,23,0.00,,,0.00,,2013-02-13 01:42:00,
2013-02-12 18:52:00,44.0,10.0,30.14,North,360,0.0,1.0,25,0.00,,,0.00,,2013-02-13 01:52:00,
2013-02-12 19:01:00,43.0,10.0,30.15,North,360,0.0,1.0,25,0.00,,,0.00,,2013-02-13 02:01:00,
2013-02-12 19:11:00,43.0,10.0,30.15,North,360,0.0,1.0,25,0.00,,,0.00,,2013-02-13 02:11:00,
2013-02-12 19:21:00,42.0,9.0,30.16,North,360,0.0,1.0,25,0.00,,,0.00,,2013-02-13 02:21:00,
2013-02-12 19:31:00,40.0,11.0,30.17,North,360,0.0,0.0,30,0.00,,,0.00,,2013-02-13 02:31:00,
2013-02-12 19:41:00,40.0,11.0,30.17,North,360,0.0,0.0,30,0.00,,,0.00,,2013-02-13 02:41:00,
2013-02-12 19:52:00,39.0,10.0,30.17,North,360,0.0,0.0,30,0.00,,,0.00,,2013-02-13 02:52:00,
2013-02-12 20:01:00,38.0,9.0,30.18,North,360,0.0,0.0,30,0.00,,,0.00,,2013-02-13 03:01:00,
2013-02-12 20:11:00,39.0,11.0,30.18,North,360,0.0,0.0,31,0.00,,,0.00,,2013-02-13 03:11:00,
2013-02-12 20:21:00,39.0,11.0,30.18,North,360,0.0,0.0,31,0.00,,,0.00,,2013-02-13 03:21:00,
2013-02-12 20:32:00,39.0,11.0,30.19,North,360,0.0,1.0,31,0.00,,,0.00,,2013-02-13 03:32:00,
2013-02-12 20:41:00,39.0,11.0,30.19,North,360,0.0,1.0,31,0.00,,,0.00,,2013-02-13 03:41:00,
2013-02-12 20:52:00,38.0,11.0,30.19,North,360,0.0,1.0,33,0.00,,,0.00,,2013-02-13 03:52:00,
2013-02-12 21:01:00,38.0,12.0,30.19,North,360,0.0,1.0,34,0.00,,,0.00,,2013-02-13 04:01:00,
2013-02-12 21:11:00,38.0,12.0,30.19,North,360,0.0,1.0,34,0.00,,,0.00,,2013-02-13 04:11:00,
2013-02-12 21:21:00,39.0,14.0,30.19,North,360,0.0,1.0,36,0.00,,,0.00,,2013-02-13 04:21:00,
2013-02-12 21:31:00,39.0,14.0,30.20,North,360,0.0,3.0,36,0.00,,,0.00,,2013-02-13 04:31:00,
2013-02-12 21:41:00,39.0,14.0,30.20,North,360,0.0,3.0,36,0.00,,,0.00,,2013-02-13 04:41:00,
2013-02-12 21:52:00,38.0,13.0,30.20,North,360,0.0,0.0,36,0.00,,,0.00,,2013-02-13 04:52:00,
2013-02-12 22:01:00,40.0,16.0,30.20,North,354,0.0,2.0,37,0.00,,,0.00,,2013-02-13 05:01:00,
2013-02-12 22:11:00,40.0,15.0,30.20,North,354,0.0,1.0,36,0.00,,,0.00,,2013-02-13 05:11:00,
2013-02-12 22:22:00,40.0,15.0,30.20,North,354,0.0,1.0,36,0.00,,,0.00,,2013-02-13 05:22:00,
2013-02-12 22:31:00,39.0,15.0,30.20,North,354,0.0,2.0,37,0.00,,,0.00,,2013-02-13 05:31:00,
2013-02-12 22:42:00,39.0,15.0,30.20,North,354,0.0,2.0,37,0.00,,,0.00,,2013-02-13 05:42:00,
2013-02-12 22:52:00,38.0,15.0,30.21,North,354,0.0,1.0,38,0.00,,,0.00,,2013-02-13 05:52:00,
2013-02-12 23:02:00,38.0,15.0,30.21,North,354,0.0,1.0,38,0.00,,,0.00,,2013-02-13 06:02:00,
2013-02-12 23:11:00,37.0,14.0,30.21,North,354,0.0,1.0,39,0.00,,,0.00,,2013-02-13 06:11:00,
2013-02-12 23:21:00,37.0,14.0,30.21,North,354,0.0,1.0,39,0.00,,,0.00,,2013-02-13 06:21:00,
2013-02-12 23:32:00,36.0,13.0,30.22,North,355,0.0,1.0,39,0.00,,,0.00,,2013-02-13 06:32:00,
2013-02-12 23:42:00,36.0,14.0,30.21,North,360,0.0,2.0,40,0.00,,,0.00,,2013-02-13 06:42:00,
2013-02-12 23:52:00,36.0,14.0,30.21,North,360,0.0,2.0,40,0.00,,,0.00,,2013-02-13 06:52:00,